This is the latest recevied weather packets stored in our database for station/object AD0YN. If no packets are shown the sender has not sent any weather packets the latest 1 day(s).
| Time | Temp. | Humidity | Pressure | Rain* | Wind** | Luminosity | Snow |
|---|---|---|---|---|---|---|---|
| 1778009092 | 11.67° C | 65% | 1011.8 hPa | 0 mm | 0 m/s | 215 W/m² | - |
| 1778008788 | 11.67° C | 65% | 1011.8 hPa | 0 mm | 0.89 m/s, 31° | 195 W/m² | - |
| 1778008487 | 11.11° C | 67% | 1011.8 hPa | 0 mm | 0 m/s | 166 W/m² | - |
| 1778008184 | 11.11° C | 68% | 1011.7 hPa | 0 mm | 0.45 m/s, 274° | 166 W/m² | - |
| 1778007879 | 11.11° C | 67% | 1012 hPa | 0 mm | 0 m/s | 166 W/m² | - |
| 1778007575 | 11.11° C | 73% | 1011.8 hPa | 0 mm | 0 m/s | 173 W/m² | - |
| 1778007272 | 11.11° C | 67% | 1011.8 hPa | 0 mm | 0 m/s | 170 W/m² | - |
| 1778006968 | 11.11° C | 69% | 1011.8 hPa | 0 mm | 0 m/s | 165 W/m² | - |
| 1778006665 | 11.11° C | 74% | 1011.9 hPa | 0 mm | 0 m/s | 153 W/m² | - |
| 1778006362 | 11.11° C | 73% | 1011.8 hPa | 0 mm | 0 m/s | 155 W/m² | - |
| 1778006059 | 11.67° C | 68% | 1011.7 hPa | 0 mm | 0.45 m/s, 273° | 168 W/m² | - |
| 1778005756 | 11.67° C | 72% | 1011.8 hPa | 0 mm | 0 m/s | 211 W/m² | - |
| 1778005452 | 11.11° C | 72% | 1011.6 hPa | 0 mm | 0 m/s | 280 W/m² | - |
| 1778005149 | 11.11° C | 70% | 1011.5 hPa | 0 mm | 0.45 m/s, 87° | 271 W/m² | - |
| 1778004846 | 11.11° C | 73% | 1011.7 hPa | 0 mm | 0 m/s | 253 W/m² | - |
| 1778004543 | 10.56° C | 73% | 1011.6 hPa | 0 mm | 0 m/s | 216 W/m² | - |
| 1778004240 | 10.56° C | 74% | 1011.8 hPa | 0 mm | 0 m/s | 208 W/m² | - |
| 1778003936 | 10.56° C | 72% | 1011.8 hPa | 0 mm | 0 m/s | 216 W/m² | - |
| 1778003632 | 10.56° C | 76% | 1011.8 hPa | 0 mm | 0.45 m/s, 193° | 174 W/m² | - |
| 1778003329 | 10.56° C | 78% | 1011.7 hPa | 0 mm | 1.79 m/s, 173° | 206 W/m² | - |
| 1778003027 | 10.56° C | 76% | 1011.8 hPa | 0 mm | 0.89 m/s, 198° | 206 W/m² | - |
| 1778002722 | 10.56° C | 78% | 1012.1 hPa | 0 mm | 0 m/s | 232 W/m² | - |
| 1778002419 | 10.56° C | 77% | 1012.3 hPa | 0 mm | 0 m/s | 246 W/m² | - |
| 1778002116 | 10.56° C | 78% | 1012.5 hPa | 0 mm | 0 m/s | 237 W/m² | - |
| 1778001814 | 10.56° C | 77% | 1012.5 hPa | 0 mm | 0 m/s | 172 W/m² | - |
* Rain latest hour (hover to see other rain measurements)
** Current wind speed in m/s (hover to see current wind gust speed)